Вернуться в каталог

LEMUR 2 EMBRIONOVIS

АктивенПогодаSSO
NORAD 56970·PAYLOAD·🇺🇸 United States

Запущен Jun 12, 2023 с Vandenberg Space Force Base

Loading…

Ближайшие Пролёты (ближайшие 24 часа)

TLE

СвежийSource: Space-Track

Эпоха: Sep 14, 2026, 08:46 UTC

1 56970U 23084AQ  26257.36547002  .00010804  00000-0  27584-3 0  9995
2 56970  97.6414  45.1980 0008204   5.5223 354.6111 15.39646242181393

Отслеживайте LEMUR 2 EMBRIONOVIS в реальном времени с AllMySat

Download on the App Store